[[{"header":{"parameterUnit":"m.s-1","parameterCategory":1,"la1":30.2991,"la2":30.254,"lo1":-89.0895,"lo2":-89.0444,"dy":0.0017,"dx":0.0017,"nx":28,"ny":28,"refTime":"2025-03-09T09:00:00:Z","depth":0,"parameterNumber":2,"parameterNumberName":"U-component_of_WINDS"},"data":[0,0,0,0,0,0,0,0,0,0,0,0,0,0,0,0,0,0,0,0,0,0,0,0,0,0,0,0,0,0,0,0,0,0,0,0,0,0,0,0,0,0,0,0,0,0,0,0,0,0,0,0,0,0,0,0,0,0,8.8094,8.8096,0,8.8281,8.8283,8.8285,8.8183,8.8178,8.8173,8.8168,8.8356,8.8366,8.8375,0,0,0,0,0,0,0,0,0,0,0,0,0,8.7648,8.7657,8.8094,8.8096,8.8099,8.8281,8.8283,8.8286,8.8184,8.8178,8.8171,8.8165,8.8353,8.8365,8.8376,0,0,0,0,0,0,0,0,0,0,0,0,0,8.7839,8.766,8.8094,8.807,8.807,8.828,8.8284,8.8287,8.8185,8.8177,8.817,8.8163,8.8349,8.8363,8.8378,8.8622,0,0,8.8423,8.8429,0,0,0,0,0,0,0,0,8.7828,8.7856,8.8071,8.8072,8.8072,8.8201,8.8195,8.8399,8.8187,8.8141,8.8168,8.8159,8.8311,8.8328,8.838,8.8631,8.8639,8.8424,8.8433,8.8439,8.8443,0,0,0,0,0,0,0,8.7815,8.7847,8.8168,8.8074,8.8075,8.805,8.8068,8.8233,8.8266,8.8145,8.8138,8.8161,8.8309,8.8366,8.8383,8.8642,8.8424,8.8437,8.8446,8.8451,8.9105,8.9113,0,0,0,0,0,0,8.7804,8.7837,8.8162,8.8174,8.7929,8.8064,8.8085,8.8167,8.8264,8.8272,8.8168,8.8156,8.8345,8.8366,8.839,8.8683,8.8439,8.8453,8.8461,8.9097,8.9107,8.9116,0,0,0,0,0,0,8.7795,8.7834,8.8154,8.8004,8.8042,8.808,8.8173,8.8175,8.8231,8.8282,8.8287,8.8219,8.8339,8.8369,8.8566,8.8688,8.846,8.8473,8.9087,8.91,8.9112,8.9271,0,0,0,0,0,0,8.7782,8.7831,8.7924,8.8006,8.8051,8.8328,8.8181,8.8184,8.8257,8.8244,8.8332,8.8339,8.8336,8.8545,8.8581,8.8704,8.8484,8.9076,8.9093,8.9108,8.9255,8.9288,8.9316,0,0,0,0,0,8.7767,8.796,8.7929,8.7969,8.8168,8.8335,8.8361,8.8354,8.8267,8.8361,8.8395,8.8336,8.867,8.8566,8.8605,8.8735,8.9068,8.9088,8.9107,8.9242,8.9282,8.9315,0,0,0,0,0,0,8.7889,8.797,8.7937,8.8163,8.8243,8.8318,8.8435,8.8396,8.8501,8.8484,8.847,8.8491,8.8696,8.8735,8.8618,8.8978,8.8855,8.8884,8.8945,8.8983,8.9013,8.8998,8.8497,0,0,0,0,0,8.7943,8.8073,8.8136,8.8329,8.8372,8.8398,8.847,8.8458,8.854,8.8573,8.862,8.8702,8.8825,8.8906,8.9022,8.9261,8.928,8.9371,8.9401,8.9426,8.945,8.9581,8.9622,8.918,8.918,8.9179,0,0,8.8054,8.8114,8.8197,8.8356,8.8416,8.8551,8.8426,8.8573,8.8673,8.8595,8.8784,8.8823,8.8913,8.9133,8.9232,8.9172,8.9577,8.945,8.947,8.948,8.9605,8.9647,8.9684,8.9193,8.919,8.9188,0,0,8.8325,8.8384,8.8553,8.8618,8.8712,8.8729,8.877,8.8852,8.8874,8.9065,8.901,8.9129,8.9341,8.9408,8.947,8.9773,8.9723,8.9811,8.9969,9.0097,9.0132,9.0163,9.0271,9.031,8.9835,8.9835,8.9836,0,8.8451,8.8653,8.8644,8.8797,8.8869,8.8808,8.8978,8.9041,8.9169,8.922,8.9152,8.9419,8.9475,8.9711,8.9785,8.9837,8.9884,8.9799,9.0128,9.0159,9.0187,9.0291,9.0331,8.9845,8.9844,8.9843,8.9842,0,8.8803,8.8944,8.9069,8.9196,8.9283,8.9444,8.946,8.9549,8.9531,8.9555,8.9751,8.9817,8.9946,9.0002,8.9984,9.0236,9.0196,9.0129,9.0005,9.024,9.0337,9.0376,8.986,8.9856,8.9853,8.9851,0,0,8.9154,8.9277,8.9323,8.9381,8.9484,8.9592,8.9752,8.988,8.9957,9.0048,9.0181,9.0365,9.0304,9.0375,9.0365,9.0478,9.0715,9.0396,9.0398,9.0453,9.0998,9.1047,9.1093,9.0684,9.0691,9.0697,9.099,0,8.9432,8.9712,8.9711,8.9969,9.01,9.0045,9.0184,9.0262,9.029,9.0405,9.0435,9.0566,9.0475,9.0518,9.0627,9.0663,9.0824,9.0642,9.0808,9.0814,9.0786,9.1144,9.1196,9.1469,9.1028,9.1034,9.1039,0,8.9794,8.9899,9.0171,9.0257,9.0312,9.0437,9.0556,9.0667,9.0755,9.0768,9.085,9.0824,9.0986,9.086,9.1085,9.0961,9.1029,9.1058,9.1068,9.1082,9.0939,9.1167,9.1556,9.1597,9.1098,9.1094,9.1089,0,9.0023,9.0233,9.0423,9.0475,9.058,9.0669,9.0717,9.0798,9.0876,9.0981,9.1031,9.1153,9.122,9.1315,9.1323,9.123,9.155,9.1424,9.1565,9.1565,9.1633,9.1628,9.2038,9.1679,9.1678,9.1678,9.1677,0,9.0334,9.0502,9.0528,9.0645,9.0833,9.0831,9.1017,9.1057,9.113,9.1254,9.1215,9.1332,9.1336,9.1456,9.1464,9.165,9.168,9.1695,9.1694,9.1698,9.1696,9.1741,9.1722,9.1688,9.1686,9.1684,9.1682,0,9.062,9.0644,9.0849,9.0933,9.0958,9.1093,9.1164,9.1276,9.1302,9.146,9.1497,9.1537,9.1677,9.1695,9.1858,9.1863,9.2087,9.2067,9.2057,9.2054,9.2194,9.2181,9.2646,9.2707,9.2309,9.2313,9.2316,0,9.0816,9.0945,9.1044,9.1125,9.1179,9.1309,9.139,9.1394,9.148,9.1592,9.1691,9.1828,9.1937,9.2163,9.2207,9.2332,9.2314,9.2469,9.2332,9.2333,9.2317,9.2309,9.2322,9.2494,9.2499,9.2502,9.2505,0,9.1163,9.1169,9.1287,9.1412,9.151,9.1607,9.1699,9.1767,9.1783,9.1882,9.2025,9.211,9.2279,9.2415,9.254,9.2588,9.2551,9.2549,9.2588,9.2592,9.2581,9.2589,9.2128,9.2537,9.2534,9.2532,9.253,9.2529,9.141,9.1523,9.1611,9.1745,9.1815,9.1903,9.2013,9.2054,9.2174,9.2312,9.2307,9.2466,9.2553,9.2717,9.2775,9.2899,9.2848,9.2905,9.2919,9.2933,9.2947,9.2563,9.2922,9.2921,9.292,9.2919,9.2919,0,9.1754,9.1809,9.1933,9.2064,9.217,9.2127,9.2227,9.2318,9.2459,9.2544,9.2654,9.282,9.2953,9.3008,9.3139,9.3228,9.3214,9.3262,9.3255,9.3267,9.2985,9.2938,9.3271,9.3271,9.3271,9.3271,9.3271,9.3271,9.1946,9.2135,9.2153,9.2377,9.2431,9.2587,9.2648,9.2729,9.2797,9.2985,9.3096,9.3132,9.3206,9.3343,9.3463,9.3476,9.3526,9.3582,9.3587,9.3322,9.3287,9.3252,9.3208,9.3593,9.3593,9.3859,9.3861,9.3863]},{"header":{"parameterUnit":"m.s-1","parameterCategory":1,"la1":30.2991,"la2":30.254,"lo1":-89.0895,"lo2":-89.0444,"dy":0.0017,"dx":0.0017,"nx":28,"ny":28,"refTime":"2025-03-09T09:00:00:Z","depth":0,"parameterNumber":3,"parameterNumberName":"V-component_of_WINDS"},"data":[0,0,0,0,0,0,0,0,0,0,0,0,0,0,0,0,0,0,0,0,0,0,0,0,0,0,0,0,0,0,0,0,0,0,0,0,0,0,0,0,0,0,0,0,0,0,0,0,0,0,0,0,0,0,0,0,0,0,-1.6086,-1.6086,0,-1.6065,-1.6064,-1.6064,-1.6,-1.5998,-1.5997,-1.5996,-1.5975,-1.5975,-1.5976,0,0,0,0,0,0,0,0,0,0,0,0,0,-1.6074,-1.6075,-1.6086,-1.6086,-1.6086,-1.6065,-1.6064,-1.6064,-1.6,-1.5998,-1.5997,-1.5995,-1.5974,-1.5975,-1.5976,0,0,0,0,0,0,0,0,0,0,0,0,0,-1.6069,-1.6075,-1.6086,-1.6051,-1.6048,-1.6065,-1.6064,-1.6064,-1.6,-1.5998,-1.5996,-1.5994,-1.5974,-1.5975,-1.5976,-1.6026,0,0,-1.598,-1.598,0,0,0,0,0,0,0,0,-1.6069,-1.6069,-1.6057,-1.6054,-1.605,-1.6033,-1.6052,-1.6051,-1.6001,-1.6018,-1.5996,-1.5993,-1.5996,-1.5995,-1.5995,-1.6025,-1.6024,-1.598,-1.598,-1.5981,-1.5981,0,0,0,0,0,0,0,-1.6069,-1.607,-1.6078,-1.6056,-1.6052,-1.6037,-1.6034,-1.6052,-1.6019,-1.6017,-1.6012,-1.601,-1.5993,-1.5995,-1.5995,-1.6023,-1.598,-1.5981,-1.5981,-1.5982,-1.6093,-1.6096,0,0,0,0,0,0,-1.6075,-1.607,-1.6078,-1.6077,-1.6054,-1.6039,-1.6036,-1.604,-1.6019,-1.6013,-1.6012,-1.6007,-1.5994,-1.5993,-1.5994,-1.6051,-1.5981,-1.5982,-1.5983,-1.6091,-1.6094,-1.6096,0,0,0,0,0,0,-1.6075,-1.6076,-1.6079,-1.6072,-1.6072,-1.6042,-1.6047,-1.6041,-1.6042,-1.6015,-1.6009,-1.6019,-1.5992,-1.5992,-1.6018,-1.6049,-1.5983,-1.5984,-1.6088,-1.6092,-1.6095,-1.6165,0,0,0,0,0,0,-1.6075,-1.6076,-1.6094,-1.6073,-1.6072,-1.6104,-1.6049,-1.6042,-1.6044,-1.6038,-1.602,-1.6015,-1.599,-1.6017,-1.602,-1.6049,-1.5984,-1.6086,-1.609,-1.6094,-1.616,-1.617,-1.6179,0,0,0,0,0,-1.6074,-1.6115,-1.6095,-1.6097,-1.6094,-1.6106,-1.6105,-1.6075,-1.6047,-1.6065,-1.6048,-1.6016,-1.6045,-1.602,-1.6022,-1.6053,-1.6084,-1.6089,-1.6094,-1.6155,-1.6168,-1.6179,0,0,0,0,0,0,-1.614,-1.6111,-1.609,-1.6124,-1.6118,-1.6095,-1.6117,-1.609,-1.6091,-1.6085,-1.6048,-1.6045,-1.6077,-1.6068,-1.604,-1.6101,-1.6059,-1.6065,-1.6105,-1.6117,-1.6127,-1.6129,-1.5985,0,0,0,0,0,-1.6158,-1.617,-1.6144,-1.6177,-1.6175,-1.6147,-1.6151,-1.6128,-1.6121,-1.6118,-1.6102,-1.6097,-1.6104,-1.611,-1.6116,-1.6158,-1.6154,-1.6181,-1.6191,-1.6199,-1.6204,-1.6227,-1.6239,-1.6113,-1.6113,-1.6113,0,0,-1.6197,-1.6182,-1.6192,-1.619,-1.6183,-1.6196,-1.6145,-1.6161,-1.6171,-1.612,-1.6144,-1.6133,-1.6124,-1.6159,-1.6174,-1.6152,-1.6238,-1.6205,-1.6212,-1.6213,-1.6234,-1.6246,-1.6256,-1.6117,-1.6116,-1.6116,0,0,-1.6273,-1.6263,-1.629,-1.6284,-1.6273,-1.6254,-1.6261,-1.6243,-1.6233,-1.6257,-1.6219,-1.6231,-1.6245,-1.6241,-1.624,-1.6317,-1.6288,-1.632,-1.6371,-1.6394,-1.6404,-1.6413,-1.6441,-1.6451,-1.6326,-1.6326,-1.6326,0,-1.6322,-1.634,-1.6307,-1.6326,-1.6327,-1.6282,-1.631,-1.6306,-1.6298,-1.63,-1.6276,-1.6294,-1.6284,-1.6318,-1.6337,-1.6338,-1.6345,-1.6322,-1.6405,-1.6413,-1.6421,-1.6447,-1.6458,-1.633,-1.6329,-1.6329,-1.6329,0,-1.6401,-1.6415,-1.6438,-1.6431,-1.6435,-1.6458,-1.643,-1.6438,-1.6416,-1.64,-1.6425,-1.6413,-1.6416,-1.6422,-1.64,-1.6453,-1.644,-1.6412,-1.6369,-1.6437,-1.6462,-1.6472,-1.6336,-1.6334,-1.6333,-1.6332,0,0,-1.6517,-1.6493,-1.6502,-1.65,-1.6486,-1.6496,-1.6518,-1.652,-1.6528,-1.6525,-1.6543,-1.6557,-1.653,-1.653,-1.6508,-1.6528,-1.6591,-1.6496,-1.6495,-1.6515,-1.6649,-1.6671,-1.6683,-1.6571,-1.6573,-1.6575,-1.665,0,-1.659,-1.6625,-1.6597,-1.6638,-1.6651,-1.6609,-1.6628,-1.6622,-1.6608,-1.6618,-1.6602,-1.6613,-1.6577,-1.6577,-1.6595,-1.6579,-1.6617,-1.6573,-1.6588,-1.6589,-1.6592,-1.6696,-1.6719,-1.6791,-1.6659,-1.6661,-1.6662,0,-1.6679,-1.668,-1.6722,-1.6707,-1.6711,-1.6729,-1.673,-1.6739,-1.6732,-1.672,-1.6721,-1.6694,-1.6715,-1.6674,-1.6704,-1.6675,-1.6679,-1.6673,-1.6675,-1.6675,-1.663,-1.67,-1.6813,-1.6824,-1.6677,-1.6675,-1.6674,0,-1.676,-1.6772,-1.6799,-1.6798,-1.678,-1.6794,-1.6787,-1.6778,-1.6782,-1.6783,-1.6786,-1.679,-1.6792,-1.6796,-1.6772,-1.6744,-1.6805,-1.6761,-1.6796,-1.6797,-1.6811,-1.681,-1.6927,-1.6814,-1.6814,-1.6814,-1.6813,0,-1.6844,-1.6872,-1.6835,-1.6852,-1.6882,-1.685,-1.6881,-1.6871,-1.6863,-1.6878,-1.6842,-1.6857,-1.6823,-1.6834,-1.6815,-1.6843,-1.6844,-1.6836,-1.6831,-1.6839,-1.684,-1.6842,-1.6836,-1.6816,-1.6816,-1.6815,-1.6815,0,-1.6939,-1.6916,-1.6943,-1.6924,-1.6921,-1.6944,-1.6928,-1.6944,-1.6928,-1.6947,-1.6949,-1.6925,-1.6937,-1.6912,-1.692,-1.6908,-1.6948,-1.6934,-1.695,-1.6946,-1.6983,-1.698,-1.7105,-1.712,-1.6997,-1.6998,-1.6999,0,-1.6994,-1.7015,-1.6999,-1.7006,-1.7002,-1.7014,-1.7018,-1.6988,-1.6994,-1.6989,-1.7005,-1.7014,-1.7019,-1.704,-1.7023,-1.703,-1.7016,-1.706,-1.7017,-1.7026,-1.7018,-1.7017,-1.702,-1.7069,-1.707,-1.7071,-1.7072,0,-1.7095,-1.7083,-1.709,-1.7094,-1.71,-1.7102,-1.7101,-1.7109,-1.7078,-1.7087,-1.7098,-1.7102,-1.7111,-1.7121,-1.7124,-1.7118,-1.7091,-1.7086,-1.7094,-1.7104,-1.7112,-1.7109,-1.6974,-1.7083,-1.7082,-1.7081,-1.7081,-1.708,-1.7172,-1.7189,-1.7181,-1.7191,-1.7187,-1.7188,-1.7201,-1.7188,-1.7197,-1.7202,-1.7184,-1.72,-1.7194,-1.7195,-1.7192,-1.7205,-1.7185,-1.7198,-1.7201,-1.7204,-1.7211,-1.711,-1.7205,-1.7205,-1.7204,-1.7204,-1.7204,0,-1.7272,-1.7265,-1.7274,-1.7275,-1.7283,-1.7256,-1.7254,-1.7263,-1.7278,-1.7274,-1.7281,-1.7295,-1.7304,-1.7289,-1.7296,-1.731,-1.7297,-1.7313,-1.7311,-1.7311,-1.7227,-1.7219,-1.7322,-1.7322,-1.7322,-1.7322,-1.7322,-1.7322,-1.7324,-1.7352,-1.7339,-1.7365,-1.7358,-1.7373,-1.7375,-1.7375,-1.7372,-1.739,-1.7398,-1.7388,-1.738,-1.7387,-1.7395,-1.739,-1.7394,-1.7414,-1.7406,-1.7328,-1.7316,-1.7305,-1.7298,-1.7415,-1.7416,-1.7488,-1.7488,-1.7489]}]]